This is the latest recevied weather packets stored in our database for station/object PY2TED-10. If no packets are shown the sender has not sent any weather packets the latest 10 day(s).
| Time | Temp. | Humidity | Pressure | Rain* | Wind** | Luminosity | Snow |
|---|---|---|---|---|---|---|---|
| 1777627928 | 24.44° C | 57% | 995.9 hPa | 0 mm | - | - | - |
| 1777627328 | 24.44° C | 57% | 995.7 hPa | 0 mm | - | - | - |
| 1777626727 | 24.44° C | 57% | 995.4 hPa | 0 mm | - | - | - |
| 1777626127 | 24.44° C | 58% | 995.4 hPa | 0 mm | - | - | - |
| 1777625527 | 24.44° C | 57% | 995.2 hPa | 0 mm | - | - | - |
| 1777624927 | 24.44° C | 57% | 995.1 hPa | 0 mm | - | - | - |
| 1777624332 | 25° C | 57% | 994.8 hPa | 0 mm | - | - | - |
| 1777624327 | 24.44° C | 57% | 994.9 hPa | 0 mm | - | - | - |
| 1777623727 | 25° C | 57% | 994.8 hPa | 0 mm | - | - | - |
| 1777623128 | 24.44° C | 58% | 994.7 hPa | 0 mm | - | - | - |
| 1777622527 | 24.44° C | 58% | 994.5 hPa | 0 mm | - | - | - |
| 1777614722 | 26.11° C | 55% | 994.6 hPa | 0 mm | - | - | - |
| 1777614122 | 26.11° C | 55% | 994.6 hPa | 0 mm | - | - | - |
| 1777613526 | 26.11° C | 55% | 994.7 hPa | 0 mm | - | - | - |
| 1777613521 | 26.11° C | 55% | 994.8 hPa | 0 mm | - | - | - |
| 1777612921 | 26.67° C | 55% | 994.6 hPa | 0 mm | - | - | - |
| 1777612326 | 26.67° C | 55% | 994.7 hPa | 0 mm | - | - | - |
| 1777612321 | 26.67° C | 55% | 994.6 hPa | 0 mm | - | - | - |
| 1777611721 | 26.67° C | 55% | 994.7 hPa | 0 mm | - | - | - |
| 1777611121 | 26.67° C | 55% | 994.7 hPa | 0 mm | - | - | - |
| 1777610521 | 26.67° C | 55% | 994.7 hPa | 0 mm | - | - | - |
| 1777609922 | 26.67° C | 55% | 994.9 hPa | 0 mm | - | - | - |
| 1777609322 | 26.67° C | 55% | 994.8 hPa | 0 mm | - | - | - |
| 1777608726 | 26.67° C | 55% | 994.8 hPa | 0 mm | - | - | - |
| 1777608722 | 27.22° C | 55% | 994.9 hPa | 0 mm | - | - | - |
* Rain latest hour (hover to see other rain measurements)
** Current wind speed in m/s (hover to see current wind gust speed)